Year,Month,Day,Hour,Minute,Value (Times are PST for temperature in C)
2003,07,19,00,00,18.70
2003,07,19,00,01,18.70
2003,07,19,00,02,18.70
2003,07,19,00,03,18.60
2003,07,19,00,04,18.60
2003,07,19,00,05,18.50
2003,07,19,00,06,18.50
2003,07,19,00,07,18.40
2003,07,19,00,08,18.30
2003,07,19,00,09,18.30
2003,07,19,00,10,18.30
2003,07,19,00,11,18.30
2003,07,19,00,12,18.30
2003,07,19,00,13,18.40
2003,07,19,00,14,18.40
2003,07,19,00,15,18.40
2003,07,19,00,16,18.30
2003,07,19,00,17,18.30
2003,07,19,00,18,18.20
2003,07,19,00,19,18.20
2003,07,19,00,20,18.30
2003,07,19,00,21,18.30
2003,07,19,00,22,18.30
2003,07,19,00,23,18.30
2003,07,19,00,24,18.30
2003,07,19,00,25,18.20
2003,07,19,00,26,18.10
2003,07,19,00,27,18.10
2003,07,19,00,28,17.90
2003,07,19,00,29,17.90
2003,07,19,00,30,17.80
2003,07,19,00,31,17.70
2003,07,19,00,32,17.60
2003,07,19,00,33,17.50
2003,07,19,00,34,17.50
2003,07,19,00,35,17.40
2003,07,19,00,36,17.30
2003,07,19,00,37,17.20
2003,07,19,00,38,17.00
2003,07,19,00,39,16.90
2003,07,19,00,40,16.70
2003,07,19,00,41,16.60
2003,07,19,00,42,16.60
2003,07,19,00,43,16.50
2003,07,19,00,44,16.40
2003,07,19,00,45,16.30
2003,07,19,00,46,16.30
2003,07,19,00,47,16.30
2003,07,19,00,48,16.30
2003,07,19,00,49,16.40
2003,07,19,00,50,16.40
2003,07,19,00,51,16.50
2003,07,19,00,52,16.60
2003,07,19,00,53,16.60
2003,07,19,00,54,16.60
2003,07,19,00,55,16.60
2003,07,19,00,56,16.70
2003,07,19,00,57,16.80
2003,07,19,00,58,16.90
2003,07,19,00,59,17.00
2003,07,19,01,00,17.00
2003,07,19,01,01,17.00
2003,07,19,01,02,16.90
2003,07,19,01,03,16.90
2003,07,19,01,04,16.90
2003,07,19,01,05,16.80
2003,07,19,01,06,16.80
2003,07,19,01,07,16.80
2003,07,19,01,08,16.80
2003,07,19,01,09,16.80
2003,07,19,01,10,16.80
2003,07,19,01,11,16.70
2003,07,19,01,12,16.70
2003,07,19,01,13,16.70
2003,07,19,01,14,16.70
2003,07,19,01,15,16.70
2003,07,19,01,16,16.70
2003,07,19,01,17,16.70
2003,07,19,01,18,16.70
2003,07,19,01,19,16.70
2003,07,19,01,20,16.70
2003,07,19,01,21,16.70
2003,07,19,01,22,16.70
2003,07,19,01,23,16.60
2003,07,19,01,24,16.60
2003,07,19,01,25,16.50
2003,07,19,01,26,16.40
2003,07,19,01,27,16.40
2003,07,19,01,28,16.40
2003,07,19,01,29,16.40
2003,07,19,01,30,16.30
2003,07,19,01,31,16.30
2003,07,19,01,32,16.30
2003,07,19,01,33,16.20
2003,07,19,01,34,16.20
2003,07,19,01,35,16.30
2003,07,19,01,36,16.30
2003,07,19,01,37,16.30
2003,07,19,01,38,16.30
2003,07,19,01,39,16.20
2003,07,19,01,40,16.10
2003,07,19,01,41,16.10
2003,07,19,01,42,16.10
2003,07,19,01,43,16.10
2003,07,19,01,44,16.10
2003,07,19,01,45,16.10
2003,07,19,01,46,16.10
2003,07,19,01,47,16.20
2003,07,19,01,48,16.20
2003,07,19,01,49,16.20
2003,07,19,01,50,16.10
2003,07,19,01,51,16.10
2003,07,19,01,52,16.10
2003,07,19,01,53,16.00
2003,07,19,01,54,15.90
2003,07,19,01,55,15.90
2003,07,19,01,56,16.00
2003,07,19,01,57,16.10
2003,07,19,01,58,16.10
2003,07,19,01,59,16.10
2003,07,19,02,00,16.10
2003,07,19,02,01,16.10
2003,07,19,02,02,16.10
2003,07,19,02,03,16.10
2003,07,19,02,04,16.10
2003,07,19,02,05,16.10
2003,07,19,02,06,16.10
2003,07,19,02,07,16.10
2003,07,19,02,08,16.10
2003,07,19,02,09,16.10
2003,07,19,02,10,16.10
2003,07,19,02,11,16.10
2003,07,19,02,12,16.10
2003,07,19,02,13,16.10
2003,07,19,02,14,16.00
2003,07,19,02,15,15.90
2003,07,19,02,16,15.90
2003,07,19,02,17,15.80
2003,07,19,02,18,15.80
2003,07,19,02,19,15.80
2003,07,19,02,20,15.80
2003,07,19,02,21,15.80
2003,07,19,02,22,15.70
2003,07,19,02,23,15.70
2003,07,19,02,24,15.70
2003,07,19,02,25,15.70
2003,07,19,02,26,15.70
2003,07,19,02,27,15.70
2003,07,19,02,28,15.70
2003,07,19,02,29,15.80
2003,07,19,02,30,15.80
2003,07,19,02,31,15.80
2003,07,19,02,32,15.80
2003,07,19,02,33,15.80
2003,07,19,02,34,15.80
2003,07,19,02,35,15.70
2003,07,19,02,36,15.80
2003,07,19,02,37,15.80
2003,07,19,02,38,15.80
2003,07,19,02,39,15.80
2003,07,19,02,40,15.90
2003,07,19,02,41,15.90
2003,07,19,02,42,15.80
2003,07,19,02,43,15.80
2003,07,19,02,44,15.80
2003,07,19,02,45,15.80
2003,07,19,02,46,15.80
2003,07,19,02,47,15.80
2003,07,19,02,48,15.80
2003,07,19,02,49,15.80
2003,07,19,02,50,15.80
2003,07,19,02,51,15.90
2003,07,19,02,52,15.90
2003,07,19,02,53,15.80
2003,07,19,02,54,15.70
2003,07,19,02,55,15.60
2003,07,19,02,56,15.70
2003,07,19,02,57,15.80
2003,07,19,02,58,15.80
2003,07,19,02,59,15.70
2003,07,19,03,00,15.60
2003,07,19,03,01,15.50
2003,07,19,03,02,15.50
2003,07,19,03,03,15.60
2003,07,19,03,04,15.60
2003,07,19,03,05,15.70
2003,07,19,03,06,15.60
2003,07,19,03,07,15.60
2003,07,19,03,08,15.50
2003,07,19,03,09,15.40
2003,07,19,03,10,15.40
2003,07,19,03,11,15.40
2003,07,19,03,12,15.50
2003,07,19,03,13,15.40
2003,07,19,03,14,15.30
2003,07,19,03,15,15.30
2003,07,19,03,16,15.20
2003,07,19,03,17,15.30
2003,07,19,03,18,15.30
2003,07,19,03,19,15.30
2003,07,19,03,20,15.20
2003,07,19,03,21,15.10
2003,07,19,03,22,15.10
2003,07,19,03,23,15.10
2003,07,19,03,24,15.10
2003,07,19,03,25,15.00
2003,07,19,03,26,14.90
2003,07,19,03,27,14.80
2003,07,19,03,28,14.70
2003,07,19,03,29,14.70
2003,07,19,03,30,14.60
2003,07,19,03,31,14.50
2003,07,19,03,32,14.30
2003,07,19,03,33,14.20
2003,07,19,03,34,14.10
2003,07,19,03,35,14.00
2003,07,19,03,36,13.90
2003,07,19,03,37,13.80
2003,07,19,03,38,13.70
2003,07,19,03,39,13.70
2003,07,19,03,40,13.70
2003,07,19,03,41,13.60
2003,07,19,03,42,13.60
2003,07,19,03,43,13.50
2003,07,19,03,44,13.50
2003,07,19,03,45,13.40
2003,07,19,03,46,13.40
2003,07,19,03,47,13.40
2003,07,19,03,48,13.50
2003,07,19,03,49,13.50
2003,07,19,03,50,13.50
2003,07,19,03,51,13.50
2003,07,19,03,52,13.50
2003,07,19,03,53,13.50
2003,07,19,03,54,13.50
2003,07,19,03,55,13.50
2003,07,19,03,56,13.50
2003,07,19,03,57,13.50
2003,07,19,03,58,13.40
2003,07,19,03,59,13.40
2003,07,19,04,00,13.30
2003,07,19,04,01,13.30
2003,07,19,04,02,13.20
2003,07,19,04,03,13.20
2003,07,19,04,04,13.10
2003,07,19,04,05,13.10
2003,07,19,04,06,13.10
2003,07,19,04,07,13.00
2003,07,19,04,08,13.00
2003,07,19,04,09,13.00
2003,07,19,04,10,13.00
2003,07,19,04,11,13.00
2003,07,19,04,12,13.00
2003,07,19,04,13,13.10
2003,07,19,04,14,13.20
2003,07,19,04,15,13.30
2003,07,19,04,16,13.30
2003,07,19,04,17,13.30
2003,07,19,04,18,13.30
2003,07,19,04,19,13.20
2003,07,19,04,20,13.10
2003,07,19,04,21,13.00
2003,07,19,04,22,13.00
2003,07,19,04,23,12.90
2003,07,19,04,24,12.80
2003,07,19,04,25,12.80
2003,07,19,04,26,12.80
2003,07,19,04,27,12.80
2003,07,19,04,28,12.80
2003,07,19,04,29,12.70
2003,07,19,04,30,12.70
2003,07,19,04,31,12.70
2003,07,19,04,32,12.70
2003,07,19,04,33,12.70
2003,07,19,04,34,12.70
2003,07,19,04,35,12.60
2003,07,19,04,36,12.60
2003,07,19,04,37,12.60
2003,07,19,04,38,12.60
2003,07,19,04,39,12.60
2003,07,19,04,40,12.60
2003,07,19,04,41,12.60
2003,07,19,04,42,12.70
2003,07,19,04,43,12.60
2003,07,19,04,44,12.60
2003,07,19,04,45,12.60
2003,07,19,04,46,12.60
2003,07,19,04,47,12.60
2003,07,19,04,48,12.60
2003,07,19,04,49,12.70
2003,07,19,04,50,12.60
2003,07,19,04,51,12.60
2003,07,19,04,52,12.70
2003,07,19,04,53,12.80
2003,07,19,04,54,12.90
2003,07,19,04,55,12.90
2003,07,19,04,56,12.90
2003,07,19,04,57,12.80
2003,07,19,04,58,12.80
2003,07,19,04,59,12.80
2003,07,19,05,00,12.80
2003,07,19,05,01,12.80
2003,07,19,05,02,12.80
2003,07,19,05,03,12.80
2003,07,19,05,04,12.80
2003,07,19,05,05,12.80
2003,07,19,05,06,12.80
2003,07,19,05,07,12.80
2003,07,19,05,08,12.80
2003,07,19,05,09,12.70
2003,07,19,05,10,12.80
2003,07,19,05,11,12.90
2003,07,19,05,12,13.00
2003,07,19,05,13,13.00
2003,07,19,05,14,13.00
2003,07,19,05,15,13.00
2003,07,19,05,16,12.90
2003,07,19,05,17,12.80
2003,07,19,05,18,12.80
2003,07,19,05,19,12.80
2003,07,19,05,20,12.70
2003,07,19,05,21,12.70
2003,07,19,05,22,12.70
2003,07,19,05,23,12.60
2003,07,19,05,24,12.60
2003,07,19,05,25,12.60
2003,07,19,05,26,12.70
2003,07,19,05,27,12.70
2003,07,19,05,28,12.70
2003,07,19,05,29,12.70
2003,07,19,05,30,12.70
2003,07,19,05,31,12.60
2003,07,19,05,32,12.70
2003,07,19,05,33,12.70
2003,07,19,05,34,12.70
2003,07,19,05,35,12.60
2003,07,19,05,36,12.60
2003,07,19,05,37,12.60
2003,07,19,05,38,12.60
2003,07,19,05,39,12.60
2003,07,19,05,40,12.60
2003,07,19,05,41,12.60
2003,07,19,05,42,12.50
2003,07,19,05,43,12.50
2003,07,19,05,44,12.50
2003,07,19,05,45,12.50
2003,07,19,05,46,12.50
2003,07,19,05,47,12.50
2003,07,19,05,48,12.50
2003,07,19,05,49,12.50
2003,07,19,05,50,12.60
2003,07,19,05,51,12.60
2003,07,19,05,52,12.60
2003,07,19,05,53,12.60
2003,07,19,05,54,12.60
2003,07,19,05,55,12.60
2003,07,19,05,56,12.60
2003,07,19,05,57,12.60
2003,07,19,05,58,12.60
2003,07,19,05,59,12.70
2003,07,19,06,00,12.70
2003,07,19,06,01,12.70
2003,07,19,06,02,12.80
2003,07,19,06,03,12.80
2003,07,19,06,04,12.80
2003,07,19,06,05,12.80
2003,07,19,06,06,12.80
2003,07,19,06,07,12.80
2003,07,19,06,08,12.80
2003,07,19,06,09,12.80
2003,07,19,06,10,12.80
2003,07,19,06,11,12.80
2003,07,19,06,12,12.80
2003,07,19,06,13,12.80
2003,07,19,06,14,12.80
2003,07,19,06,15,12.90
2003,07,19,06,16,12.90
2003,07,19,06,17,12.90
2003,07,19,06,18,12.90
2003,07,19,06,19,12.90
2003,07,19,06,20,13.00
2003,07,19,06,21,13.00
2003,07,19,06,22,13.00
2003,07,19,06,23,13.00
2003,07,19,06,24,13.00
2003,07,19,06,25,13.00
2003,07,19,06,26,13.00
2003,07,19,06,27,13.10
2003,07,19,06,28,13.10
2003,07,19,06,29,13.20
2003,07,19,06,30,13.20
2003,07,19,06,31,13.20
2003,07,19,06,32,13.20
2003,07,19,06,33,13.20
2003,07,19,06,34,13.30
2003,07,19,06,35,13.30
2003,07,19,06,36,13.30
2003,07,19,06,37,13.30
2003,07,19,06,38,13.30
2003,07,19,06,39,13.40
2003,07,19,06,40,13.40
2003,07,19,06,41,13.40
2003,07,19,06,42,13.50
2003,07,19,06,43,13.50
2003,07,19,06,44,13.50
2003,07,19,06,45,13.60
2003,07,19,06,46,13.70
2003,07,19,06,47,13.70
2003,07,19,06,48,13.80
2003,07,19,06,49,13.80
2003,07,19,06,50,13.90
2003,07,19,06,51,13.90
2003,07,19,06,52,13.90
2003,07,19,06,53,14.00
2003,07,19,06,54,14.10
2003,07,19,06,55,14.20
2003,07,19,06,56,14.20
2003,07,19,06,57,14.20
2003,07,19,06,58,14.20
2003,07,19,06,59,14.20
2003,07,19,07,00,14.20
2003,07,19,07,01,14.20
2003,07,19,07,02,14.30
2003,07,19,07,03,14.30
2003,07,19,07,04,14.30
2003,07,19,07,05,14.30
2003,07,19,07,06,14.50
2003,07,19,07,07,14.60
2003,07,19,07,08,14.60
2003,07,19,07,09,14.60
2003,07,19,07,10,14.50
2003,07,19,07,11,14.50
2003,07,19,07,12,14.50
2003,07,19,07,13,14.50
2003,07,19,07,14,14.50
2003,07,19,07,15,14.40
2003,07,19,07,16,14.40
2003,07,19,07,17,14.50
2003,07,19,07,18,14.50
2003,07,19,07,19,14.60
2003,07,19,07,20,14.70
2003,07,19,07,21,14.80
2003,07,19,07,22,15.00
2003,07,19,07,23,15.10
2003,07,19,07,24,15.30
2003,07,19,07,25,15.30
2003,07,19,07,26,15.40
2003,07,19,07,27,15.50
2003,07,19,07,28,15.60
2003,07,19,07,29,15.70
2003,07,19,07,30,15.70
2003,07,19,07,31,15.80
2003,07,19,07,32,15.90
2003,07,19,07,33,16.00
2003,07,19,07,34,16.10
2003,07,19,07,35,16.30
2003,07,19,07,36,16.40
2003,07,19,07,37,16.70
2003,07,19,07,38,16.80
2003,07,19,07,39,17.00
2003,07,19,07,40,17.10
2003,07,19,07,41,17.20
2003,07,19,07,42,17.20
2003,07,19,07,43,17.20
2003,07,19,07,44,17.20
2003,07,19,07,45,17.20
2003,07,19,07,46,17.40
2003,07,19,07,47,17.50
2003,07,19,07,48,17.60
2003,07,19,07,49,17.70
2003,07,19,07,50,17.70
2003,07,19,07,51,17.70
2003,07,19,07,52,17.60
2003,07,19,07,53,17.60
2003,07,19,07,54,17.60
2003,07,19,07,55,17.70
2003,07,19,07,56,17.80
2003,07,19,07,57,17.90
2003,07,19,07,58,18.00
2003,07,19,07,59,18.10
2003,07,19,08,00,18.20
2003,07,19,08,01,18.20
2003,07,19,08,02,18.20
2003,07,19,08,03,18.00
2003,07,19,08,04,17.80
2003,07,19,08,05,17.80
2003,07,19,08,06,17.80
2003,07,19,08,07,17.80
2003,07,19,08,08,17.90
2003,07,19,08,09,17.90
2003,07,19,08,10,18.00
2003,07,19,08,11,18.10
2003,07,19,08,12,18.20
2003,07,19,08,13,18.50
2003,07,19,08,14,18.50
2003,07,19,08,15,18.40
2003,07,19,08,16,18.40
2003,07,19,08,17,18.40
2003,07,19,08,18,18.50
2003,07,19,08,19,18.40
2003,07,19,08,20,18.30
2003,07,19,08,21,18.20
2003,07,19,08,22,18.20
2003,07,19,08,23,18.00
2003,07,19,08,24,17.80
2003,07,19,08,25,17.70
2003,07,19,08,26,17.70
2003,07,19,08,27,17.60
2003,07,19,08,28,17.40
2003,07,19,08,29,17.30
2003,07,19,08,30,17.10
2003,07,19,08,31,17.00
2003,07,19,08,32,16.90
2003,07,19,08,33,16.70
2003,07,19,08,34,16.70
2003,07,19,08,35,16.70
2003,07,19,08,36,16.60
2003,07,19,08,37,16.60
2003,07,19,08,38,16.40
2003,07,19,08,39,16.40
2003,07,19,08,40,16.40
2003,07,19,08,41,16.50
2003,07,19,08,42,16.70
2003,07,19,08,43,16.70
2003,07,19,08,44,16.80
2003,07,19,08,45,16.70
2003,07,19,08,46,16.70
2003,07,19,08,47,16.70
2003,07,19,08,48,16.70
2003,07,19,08,49,16.60
2003,07,19,08,50,16.60
2003,07,19,08,51,16.70
2003,07,19,08,52,16.70
2003,07,19,08,53,16.90
2003,07,19,08,54,17.00
2003,07,19,08,55,17.10
2003,07,19,08,56,17.30
2003,07,19,08,57,17.10
2003,07,19,08,58,17.10
2003,07,19,08,59,17.10
2003,07,19,09,00,17.10
2003,07,19,09,01,17.20
2003,07,19,09,02,17.30
2003,07,19,09,03,17.40
2003,07,19,09,04,17.30
2003,07,19,09,05,17.30
2003,07,19,09,06,17.30
2003,07,19,09,07,17.10
2003,07,19,09,08,17.00
2003,07,19,09,09,16.90
2003,07,19,09,10,16.90
2003,07,19,09,11,16.80
2003,07,19,09,12,16.80
2003,07,19,09,13,16.70
2003,07,19,09,14,16.70
2003,07,19,09,15,16.60
2003,07,19,09,16,16.60
2003,07,19,09,17,16.60
2003,07,19,09,18,16.80
2003,07,19,09,19,16.80
2003,07,19,09,20,16.90
2003,07,19,09,21,17.00
2003,07,19,09,22,17.00
2003,07,19,09,23,16.90
2003,07,19,09,24,16.90
2003,07,19,09,25,16.90
2003,07,19,09,26,16.90
2003,07,19,09,27,17.00
2003,07,19,09,28,17.00
2003,07,19,09,29,17.10
2003,07,19,09,30,17.20
2003,07,19,09,31,17.20
2003,07,19,09,32,17.10
2003,07,19,09,33,17.10
2003,07,19,09,34,17.20
2003,07,19,09,35,17.20
2003,07,19,09,36,17.40
2003,07,19,09,37,17.30
2003,07,19,09,38,17.30
2003,07,19,09,39,17.20
2003,07,19,09,40,17.10
2003,07,19,09,41,17.00
2003,07,19,09,42,17.00
2003,07,19,09,43,17.00
2003,07,19,09,44,17.20
2003,07,19,09,45,17.20
2003,07,19,09,46,17.00
2003,07,19,09,47,16.90
2003,07,19,09,48,16.90
2003,07,19,09,49,17.00
2003,07,19,09,50,17.10
2003,07,19,09,51,17.10
2003,07,19,09,52,17.30
2003,07,19,09,53,17.40
2003,07,19,09,54,17.40
2003,07,19,09,55,17.50
2003,07,19,09,56,17.50
2003,07,19,09,57,17.50
2003,07,19,09,58,17.70
2003,07,19,09,59,17.60
2003,07,19,10,00,17.50
2003,07,19,10,01,17.50
2003,07,19,10,02,17.50
2003,07,19,10,03,17.50
2003,07,19,10,04,17.70
2003,07,19,10,05,17.70
2003,07,19,10,06,17.50
2003,07,19,10,07,17.60
2003,07,19,10,08,17.50
2003,07,19,10,09,17.40
2003,07,19,10,10,17.40
2003,07,19,10,11,17.30
2003,07,19,10,12,17.40
2003,07,19,10,13,17.40
2003,07,19,10,14,17.40
2003,07,19,10,15,17.50
2003,07,19,10,16,17.50
2003,07,19,10,17,17.50
2003,07,19,10,18,17.60
2003,07,19,10,19,17.80
2003,07,19,10,20,17.70
2003,07,19,10,21,17.70
2003,07,19,10,22,17.70
2003,07,19,10,23,17.80
2003,07,19,10,24,17.80
2003,07,19,10,25,17.90
2003,07,19,10,26,18.00
2003,07,19,10,27,18.20
2003,07,19,10,28,18.50
2003,07,19,10,29,18.70
2003,07,19,10,30,18.90
2003,07,19,10,31,18.90
2003,07,19,10,32,18.90
2003,07,19,10,33,18.90
2003,07,19,10,34,18.90
2003,07,19,10,35,18.90
2003,07,19,10,36,18.90
2003,07,19,10,37,18.90
2003,07,19,10,38,18.90
2003,07,19,10,39,19.00
2003,07,19,10,40,19.10
2003,07,19,10,41,19.20
2003,07,19,10,42,19.40
2003,07,19,10,43,19.40
2003,07,19,10,44,19.50
2003,07,19,10,45,19.60
2003,07,19,10,46,19.60
2003,07,19,10,47,19.60
2003,07,19,10,48,19.80
2003,07,19,10,49,20.10
2003,07,19,10,50,20.00
2003,07,19,10,51,19.90
2003,07,19,10,52,19.90
2003,07,19,10,53,20.00
2003,07,19,10,54,19.90
2003,07,19,10,55,19.90
2003,07,19,10,56,20.00
2003,07,19,10,57,19.90
2003,07,19,10,58,19.70
2003,07,19,10,59,19.70
2003,07,19,11,00,19.60
2003,07,19,11,01,19.50
2003,07,19,11,02,19.50
2003,07,19,11,03,19.60
2003,07,19,11,04,19.60
2003,07,19,11,05,19.60
2003,07,19,11,06,19.50
2003,07,19,11,07,19.60
2003,07,19,11,08,19.70
2003,07,19,11,09,19.60
2003,07,19,11,10,19.70
2003,07,19,11,11,19.70
2003,07,19,11,12,19.90
2003,07,19,11,13,19.90
2003,07,19,11,14,19.90
2003,07,19,11,15,19.90
2003,07,19,11,16,20.00
2003,07,19,11,17,20.00
2003,07,19,11,18,19.90
2003,07,19,11,19,19.80
2003,07,19,11,20,19.70
2003,07,19,11,21,19.60
2003,07,19,11,22,19.50
2003,07,19,11,23,19.50
2003,07,19,11,24,19.60
2003,07,19,11,25,19.70
2003,07,19,11,26,19.80
2003,07,19,11,27,19.80
2003,07,19,11,28,19.60
2003,07,19,11,29,19.60
2003,07,19,11,30,19.60
2003,07,19,11,31,19.90
2003,07,19,11,32,20.20
2003,07,19,11,33,20.50
2003,07,19,11,34,20.80
2003,07,19,11,35,21.00
2003,07,19,11,36,21.00
2003,07,19,11,37,21.20
2003,07,19,11,38,21.10
2003,07,19,11,39,21.00
2003,07,19,11,40,20.90
2003,07,19,11,41,20.90
2003,07,19,11,42,21.00
2003,07,19,11,43,21.00
2003,07,19,11,44,21.10
2003,07,19,11,45,21.10
2003,07,19,11,46,21.10
2003,07,19,11,47,21.10
2003,07,19,11,48,21.20
2003,07,19,11,49,21.30
2003,07,19,11,50,21.20
2003,07,19,11,51,21.30
2003,07,19,11,52,21.30
2003,07,19,11,53,21.10
2003,07,19,11,54,21.10
2003,07,19,11,55,21.00
2003,07,19,11,56,21.00
2003,07,19,11,57,20.80
2003,07,19,11,58,20.50
2003,07,19,11,59,20.10
2003,07,19,12,00,19.90
2003,07,19,12,01,19.80
2003,07,19,12,02,19.60
2003,07,19,12,03,19.50
2003,07,19,12,04,19.40
2003,07,19,12,05,19.20
2003,07,19,12,06,19.10
2003,07,19,12,07,19.20
2003,07,19,12,08,19.20
2003,07,19,12,09,19.30
2003,07,19,12,10,19.20
2003,07,19,12,11,19.20
2003,07,19,12,12,19.10
2003,07,19,12,13,19.10
2003,07,19,12,14,19.10
2003,07,19,12,15,19.40
2003,07,19,12,16,19.50
2003,07,19,12,17,19.50
2003,07,19,12,18,19.50
2003,07,19,12,19,19.50
2003,07,19,12,20,19.40
2003,07,19,12,21,19.40
2003,07,19,12,22,19.40
2003,07,19,12,23,19.60
2003,07,19,12,24,19.70
2003,07,19,12,25,19.80
2003,07,19,12,26,19.90
2003,07,19,12,27,19.90
2003,07,19,12,28,19.90
2003,07,19,12,29,19.90
2003,07,19,12,30,19.90
2003,07,19,12,31,19.90
2003,07,19,12,32,20.00
2003,07,19,12,33,19.90
2003,07,19,12,34,19.90
2003,07,19,12,35,19.70
2003,07,19,12,36,19.60
2003,07,19,12,37,19.60
2003,07,19,12,38,19.60
2003,07,19,12,39,19.60
2003,07,19,12,40,19.60
2003,07,19,12,41,19.70
2003,07,19,12,42,19.80
2003,07,19,12,43,20.10
2003,07,19,12,44,20.30
2003,07,19,12,45,20.30
2003,07,19,12,46,20.20
2003,07,19,12,47,20.10
2003,07,19,12,48,19.90
2003,07,19,12,49,19.90
2003,07,19,12,50,19.90
2003,07,19,12,51,19.90
2003,07,19,12,52,19.80
2003,07,19,12,53,19.80
2003,07,19,12,54,19.80
2003,07,19,12,55,19.90
2003,07,19,12,56,20.00
2003,07,19,12,57,20.00
2003,07,19,12,58,20.10
2003,07,19,12,59,20.20
2003,07,19,13,00,20.20
2003,07,19,13,01,20.30
2003,07,19,13,02,20.30
2003,07,19,13,03,20.40
2003,07,19,13,04,20.40
2003,07,19,13,05,20.40
2003,07,19,13,06,20.40
2003,07,19,13,07,20.20
2003,07,19,13,08,20.10
2003,07,19,13,09,20.20
2003,07,19,13,10,20.30
2003,07,19,13,11,20.40
2003,07,19,13,12,20.40
2003,07,19,13,13,20.30
2003,07,19,13,14,20.30
2003,07,19,13,15,20.50
2003,07,19,13,16,20.60
2003,07,19,13,17,20.60
2003,07,19,13,18,20.70
2003,07,19,13,19,20.80
2003,07,19,13,20,21.00
2003,07,19,13,21,21.10
2003,07,19,13,22,21.20
2003,07,19,13,23,21.30
2003,07,19,13,24,21.30
2003,07,19,13,25,21.30
2003,07,19,13,26,21.60
2003,07,19,13,27,21.70
2003,07,19,13,28,21.60
2003,07,19,13,29,21.60
2003,07,19,13,30,21.60
2003,07,19,13,31,21.70
2003,07,19,13,32,21.80
2003,07,19,13,33,21.90
2003,07,19,13,34,22.00
2003,07,19,13,35,22.00
2003,07,19,13,36,22.00
2003,07,19,13,37,21.80
2003,07,19,13,38,21.60
2003,07,19,13,39,21.50
2003,07,19,13,40,21.50
2003,07,19,13,41,21.70
2003,07,19,13,42,21.90
2003,07,19,13,43,22.20
2003,07,19,13,44,22.40
2003,07,19,13,45,22.60
2003,07,19,13,46,22.80
2003,07,19,13,47,22.80
2003,07,19,13,48,23.00
2003,07,19,13,49,22.90
2003,07,19,13,50,22.80
2003,07,19,13,51,22.70
2003,07,19,13,52,22.70
2003,07,19,13,53,22.70
2003,07,19,13,54,22.60
2003,07,19,13,55,22.60
2003,07,19,13,56,22.80
2003,07,19,13,57,23.10
2003,07,19,13,58,23.40
2003,07,19,13,59,23.70
2003,07,19,14,00,23.80
2003,07,19,14,01,24.00
2003,07,19,14,02,24.20
2003,07,19,14,03,24.40
2003,07,19,14,04,24.60
2003,07,19,14,05,24.80
2003,07,19,14,06,24.90
2003,07,19,14,07,25.10
2003,07,19,14,08,25.10
2003,07,19,14,09,25.10
2003,07,19,14,10,25.20
2003,07,19,14,11,25.10
2003,07,19,14,12,25.20
2003,07,19,14,13,25.30
2003,07,19,14,14,25.60
2003,07,19,14,15,25.80
2003,07,19,14,16,25.80
2003,07,19,14,17,25.80
2003,07,19,14,18,25.90
2003,07,19,14,19,26.00
2003,07,19,14,20,26.00
2003,07,19,14,21,25.80
2003,07,19,14,22,25.60
2003,07,19,14,23,25.70
2003,07,19,14,24,25.70
2003,07,19,14,25,25.90
2003,07,19,14,26,26.30
2003,07,19,14,27,26.60
2003,07,19,14,28,27.00
2003,07,19,14,29,27.20
2003,07,19,14,30,27.40
2003,07,19,14,31,27.50
2003,07,19,14,32,27.40
2003,07,19,14,33,27.10
2003,07,19,14,34,27.10
2003,07,19,14,35,27.20
2003,07,19,14,36,26.80
2003,07,19,14,37,26.80
2003,07,19,14,38,26.90
2003,07,19,14,39,26.90
2003,07,19,14,40,26.90
2003,07,19,14,41,27.10
2003,07,19,14,42,27.30
2003,07,19,14,43,27.50
2003,07,19,14,44,27.80
2003,07,19,14,45,27.80
2003,07,19,14,46,27.60
2003,07,19,14,47,27.20
2003,07,19,14,48,26.80
2003,07,19,14,49,26.30
2003,07,19,14,50,26.30
2003,07,19,14,51,26.30
2003,07,19,14,52,26.20
2003,07,19,14,53,26.10
2003,07,19,14,54,25.90
2003,07,19,14,55,26.00
2003,07,19,14,56,26.20
2003,07,19,14,57,26.40
2003,07,19,14,58,26.60
2003,07,19,14,59,26.80
2003,07,19,15,00,26.90
2003,07,19,15,01,26.90
2003,07,19,15,02,27.00
2003,07,19,15,03,27.10
2003,07,19,15,04,27.30
2003,07,19,15,05,27.30
2003,07,19,15,06,27.60
2003,07,19,15,07,27.90
2003,07,19,15,08,28.10
2003,07,19,15,09,28.30
2003,07,19,15,10,28.40
2003,07,19,15,11,28.50
2003,07,19,15,12,28.70
2003,07,19,15,13,28.80
2003,07,19,15,14,29.00
2003,07,19,15,15,29.10
2003,07,19,15,16,29.20
2003,07,19,15,17,29.40
2003,07,19,15,18,29.50
2003,07,19,15,19,29.60
2003,07,19,15,20,29.70
2003,07,19,15,21,29.30
2003,07,19,15,22,29.30
2003,07,19,15,23,29.40
2003,07,19,15,24,29.40
2003,07,19,15,25,29.30
2003,07,19,15,26,29.40
2003,07,19,15,27,29.40
2003,07,19,15,28,29.40
2003,07,19,15,29,29.20
2003,07,19,15,30,28.90
2003,07,19,15,31,29.00
2003,07,19,15,32,29.10
2003,07,19,15,33,29.00
2003,07,19,15,34,29.10
2003,07,19,15,35,29.20
2003,07,19,15,36,29.30
2003,07,19,15,37,29.30
2003,07,19,15,38,29.40
2003,07,19,15,39,29.50
2003,07,19,15,40,29.50
2003,07,19,15,41,29.40
2003,07,19,15,42,29.10
2003,07,19,15,43,29.10
2003,07,19,15,44,28.80
2003,07,19,15,45,28.50
2003,07,19,15,46,28.30
2003,07,19,15,47,28.10
2003,07,19,15,48,28.10
2003,07,19,15,49,28.00
2003,07,19,15,50,28.00
2003,07,19,15,51,27.90
2003,07,19,15,52,27.50
2003,07,19,15,53,27.30
2003,07,19,15,54,27.40
2003,07,19,15,55,27.50
2003,07,19,15,56,27.50
2003,07,19,15,57,27.50
2003,07,19,15,58,27.40
2003,07,19,15,59,27.60
2003,07,19,16,00,27.70
2003,07,19,16,01,27.90
2003,07,19,16,02,28.00
2003,07,19,16,03,28.00
2003,07,19,16,04,27.90
2003,07,19,16,05,27.90
2003,07,19,16,06,27.80
2003,07,19,16,07,27.70
2003,07,19,16,08,27.70
2003,07,19,16,09,27.60
2003,07,19,16,10,27.80
2003,07,19,16,11,27.90
2003,07,19,16,12,28.00
2003,07,19,16,13,28.20
2003,07,19,16,14,28.30
2003,07,19,16,15,28.30
2003,07,19,16,16,28.10
2003,07,19,16,17,28.10
2003,07,19,16,18,28.10
2003,07,19,16,19,28.10
2003,07,19,16,20,28.10
2003,07,19,16,21,28.30
2003,07,19,16,22,28.40
2003,07,19,16,23,28.40
2003,07,19,16,24,28.40
2003,07,19,16,25,28.40
2003,07,19,16,26,28.60
2003,07,19,16,27,28.70
2003,07,19,16,28,28.60
2003,07,19,16,29,28.70
2003,07,19,16,30,28.80
2003,07,19,16,31,28.80
2003,07,19,16,32,28.70
2003,07,19,16,33,28.60
2003,07,19,16,34,28.60
2003,07,19,16,35,28.70
2003,07,19,16,36,28.80
2003,07,19,16,37,28.80
2003,07,19,16,38,28.80
2003,07,19,16,39,28.80
2003,07,19,16,40,28.80
2003,07,19,16,41,28.90
2003,07,19,16,42,28.80
2003,07,19,16,43,28.80
2003,07,19,16,44,28.90
2003,07,19,16,45,29.00
2003,07,19,16,46,29.20
2003,07,19,16,47,29.40
2003,07,19,16,48,29.40
2003,07,19,16,49,29.30
2003,07,19,16,50,29.40
2003,07,19,16,51,29.40
2003,07,19,16,52,29.50
2003,07,19,16,53,29.70
2003,07,19,16,54,29.70
2003,07,19,16,55,29.70
2003,07,19,16,56,29.70
2003,07,19,16,57,29.80
2003,07,19,16,58,29.70
2003,07,19,16,59,29.80
2003,07,19,17,00,29.90
2003,07,19,17,01,29.80
2003,07,19,17,02,29.90
2003,07,19,17,03,30.00
2003,07,19,17,04,30.30
2003,07,19,17,05,30.50
2003,07,19,17,06,30.40
2003,07,19,17,07,30.20
2003,07,19,17,08,29.90
2003,07,19,17,09,29.60
2003,07,19,17,10,29.70
2003,07,19,17,11,29.70
2003,07,19,17,12,29.50
2003,07,19,17,13,29.40
2003,07,19,17,14,29.50
2003,07,19,17,15,29.50
2003,07,19,17,16,29.40
2003,07,19,17,17,29.30
2003,07,19,17,18,29.10
2003,07,19,17,19,29.00